Home > Weather > Porto Novo > Past weeks

Flag for Benin Weather for the Past 2 Weeks in Porto Novo, Benin

Now
81 °F

Passing clouds.


Feels Like: 88 °F
Forecast: 81 / 94 °F
Wind: 1 mph from Southwest

Location: Cotonou Airport

Current Time: May 4, 2016 at 5:51:59 AM

Latest Report: May 4, 2016 at 5:00 AM


Visibility: N/A

Pressure: 29.80 "Hg

Humidity: 94%

Dew Point: 79 °F

Location of Porto NovoLocation

Historic Weather in Porto Novo — Graph

°F

Porto Novo Temperature Yesterday

Maximum temperature yesterday: 90 °F (at 10:00 AM)
Minimum temperature yesterday: 84 °F (at 12:00 AM)
Average temperature yesterday: 86 °F

High & Low Weather Summary for the Past Weeks

 TemperatureHumidityPressure
High91 °F (Apr 20, 3:00 PM)94% (Apr 28, 8:00 AM)29.89 "Hg (Apr 28, 8:00 AM)
Low73 °F (Apr 28, 8:00 AM)62% (Apr 29, 10:00 AM)29.68 "Hg (Apr 24, 5:00 PM)
Average86 °F79%29.78 "Hg
* Reported Apr 19 4:00 AM — May 4 4:00 AM, Porto Novo, Weather by CustomWeather, © 2016

Note: Actual official high and low records may vary slightly from our data, if they occured in-between our weather recording intervals... More about our weather records

Advertising

Porto Novo Weather History for the Previous 24 Hours

Scroll right to see more
 ConditionsComfort  
Time TempWeatherWind HumidityBarometerVisibility
4:00 AM
Wed, May 4
82 °FPassing clouds.2 mph89%29.80 "HgN/A
3:00 AM82 °FPassing clouds.5 mph84%29.80 "HgN/A
2:00 AM84 °FPassing clouds.7 mph79%29.80 "HgN/A
1:00 AM84 °FPassing clouds.10 mph79%29.80 "HgN/A
12:00 AM84 °FPassing clouds.8 mph79%29.83 "HgN/A
11:00 PM
Tue, May 3
84 °FPassing clouds.9 mph84%29.83 "HgN/A
10:00 PM84 °FPassing clouds.13 mph79%29.83 "HgN/A
9:00 PM84 °FPassing clouds.14 mph84%29.80 "HgN/A
8:00 PM84 °FPassing clouds.15 mph79%29.77 "HgN/A
7:00 PM84 °FPassing clouds.15 mph84%29.80 "HgN/A
6:00 PM86 °FScattered clouds.15 mph79%29.77 "HgN/A
5:00 PM88 °FScattered clouds.18 mph75%29.74 "HgN/A
4:00 PM88 °FScattered clouds.15 mph75%29.77 "HgN/A
3:00 PM88 °FScattered clouds.17 mph75%29.77 "HgN/A
2:00 PM88 °FScattered clouds.15 mph75%29.80 "HgN/A
1:00 PM88 °FScattered clouds.15 mph75%29.83 "HgN/A
12:00 PM90 °FScattered clouds.17 mph75%29.83 "HgN/A
11:00 AM90 °FScattered clouds.15 mph75%29.86 "HgN/A
10:00 AM90 °FScattered clouds.15 mph75%29.86 "HgN/A
9:00 AM86 °FScattered clouds.12 mph84%29.86 "HgN/A
8:00 AM84 °FScattered clouds.5 mph84%29.83 "HgN/A
7:00 AM84 °FScattered clouds.10 mph84%29.80 "HgN/A
6:00 AM84 °FPassing clouds.9 mph84%29.80 "HgN/A
5:00 AM84 °FPassing clouds.9 mph84%29.77 "HgN/A
Weather by CustomWeather, © 2016

See weather overviewHow to use our weather pages